DW8435 Weather Reports


time (UTC)temp
C
wind
direction
speed
KPH
gust
KPH
rain 1hr
cm
rain 24hr
cm
rain mn
cm
humidity
%
barometer
mb
20260503071623 21 248 0.0 0.0 0.00 3.20 0.00 89 1012.7
20260503060140 22 269 0.0 6.4 0.00 3.20 0.00 89 1013.4
20260503054534 22 265 0.0 6.4 0.00 3.20 0.00 89 1013.5
20260503053122 22 263 0.0 3.2 0.00 3.20 0.00 89 1013.6
20260503051538 23 250 4.8 9.7 0.00 3.20 0.00 89 1013.6
20260503050129 23 251 3.2 8.0 0.00 3.20 0.00 89 1013.6
20260503044552 23 261 0.0 0.0 0.00 3.20 0.00 89 1013.7
20260503043021 23 248 0.0 0.0 0.00 3.20 0.00 89 1014.0
20260503041609 23 283 0.0 0.0 0.00 3.20 0.00 89 1013.9
20260503034516 23 283 0.0 0.0 0.00 3.20 3.20 89 1014.2
20260503033110 23 284 0.0 0.0 0.00 3.20 3.20 89 1014.2
20260503030125 24 283 0.0 0.0 0.00 3.20 3.20 89 1014.1
20260503024541 24 280 3.2 9.7 0.00 3.20 3.20 89 1014.0
20260503023135 24 268 0.0 0.0 0.00 3.20 3.20 89 1013.9
20260503021547 24 309 0.0 0.0 0.00 3.20 3.20 89 1013.6
20260503020002 25 284 0.0 0.0 0.00 3.20 3.20 89 1013.7
20260503014608 25 276 0.0 0.0 0.00 3.20 3.20 89 1013.4
20260503013005 25 279 0.0 0.0 0.00 3.20 3.20 89 1013.2
20260503011603 25 286 0.0 0.0 0.00 3.20 3.20 89 1013.1
20260503010011 25 287 0.0 0.0 0.00 3.20 3.20 89 1012.8
20260503004609 25 286 0.0 0.0 0.00 3.20 3.20 89 1012.5
20260503003030 25 302 0.0 3.2 0.00 3.20 3.20 89 1012.4
20260503001617 25 321 1.6 4.8 0.00 3.20 3.20 89 1012.3
20260502234505 24 317 0.0 0.0 0.08 3.23 3.20 89 1012.0
20260502233103 24 317 1.6 4.8 0.23 3.23 3.20 89 1012.0
20260502231526 24 348 3.2 6.4 1.78 3.23 3.20 89 1011.7
20260502230119 25 53 1.6 8.0 2.84 3.23 3.20 89 1011.6
20260502224541 24 61 9.7 14.5 2.77 3.15 3.12 89 1011.5
20260502223009 24 87 11.3 20.9 2.57 2.92 2.90 88 1011.5
20260502221603 25 58 9.7 19.3 1.12 1.50 1.45 86 1011.7
20260502220028 26 36 9.7 20.9 0.03 0.38 0.36 84 1011.2
20260502214619 27 53 4.8 8.0 0.36 0.38 0.36 84 1011.2
20260502213048 27 185 3.2 8.0 0.36 0.38 0.36 83 1010.9
20260502211509 27 141 6.4 12.9 0.36 0.38 0.36 83 1010.8
20260502210117 28 101 9.7 17.7 0.33 0.36 0.33 83 1010.7
20260502203119 29 155 8.0 17.7 0.00 0.03 0.00 76 1010.6
20260502201550 29 165 11.3 22.5 0.00 0.03 0.00 75 1010.6
20260502200006 30 157 17.7 25.7 0.00 0.03 0.00 74 1010.7
20260502194558 30 175 9.7 22.5 0.00 0.03 0.00 72 1010.7
20260502193027 31 142 9.7 17.7 0.00 0.03 0.00 69 1010.9
20260502191615 31 115 9.7 22.5 0.00 0.03 0.00 65 1010.8
20260502190029 31 124 12.9 19.3 0.00 0.03 0.00 67 1010.9
20260502184622 32 61 12.9 25.7 0.00 0.03 0.00 64 1011.1
20260502183101 32 80 12.9 20.9 0.00 0.03 0.00 61 1011.1
20260502181634 33 147 6.4 17.7 0.00 0.03 0.00 60 1011.2
20260502170117 31 111 11.3 22.5 0.00 0.03 0.00 65 1012.1
20260502163008 32 95 16.1 24.1 0.00 0.03 0.00 57 1012.3
20260502161625 32 62 11.3 19.3 0.00 0.03 0.00 56 1012.6
20260502140128 30 266 4.8 14.5 0.00 0.03 0.00 62 1013.6
20260502123022 26 296 4.8 9.7 0.00 0.03 0.00 76 1013.0
20260502121606 26 277 3.2 12.9 0.00 0.03 0.00 78 1012.8
20260502114623 24 265 3.2 8.0 0.00 0.03 0.00 83 1012.7
20260502113044 23 261 1.6 9.7 0.00 0.03 0.00 85 1012.3
20260502111503 23 267 0.0 0.0 0.00 0.03 0.00 87 1012.4
20260502110056 23 251 3.2 8.0 0.00 0.03 0.00 87 1012.1
20260502104508 22 248 3.2 8.0 0.00 0.03 0.00 88 1012.0
20260502103107 22 257 0.0 3.2 0.00 0.03 0.00 87 1011.8
20260502101515 22 256 3.2 8.0 0.00 0.03 0.00 87 1011.7
20260502091508 22 277 0.0 0.0 0.00 0.03 0.00 87 1011.0
20260502090106 22 273 0.0 0.0 0.00 0.03 0.00 87 1010.9